Дата Пункты Температура Давл., мм. Влажн., % Ветер Погодные явления
Воздуха Воды Направл. Скорость
24.10.19 03:00 Одесса 11.0 15.0 763 95 Пн 0 03 ГОДИНИ
23.10.19 09:00 Одесса 11.0 15.0 764 92 Пн 0 21 ГОДИНУ
23.10.19 06:00 Одесса 12.0 15.0 764 91 Пн 0 18 ГОДИН
23.10.19 03:00 Одесса 12.0 15.0 764 88 С 1 15 ГОДИН
23.10.19 12:00 Одесса 11.0 15.0 765 96 С 1 12 ГОДИН
23.10.19 09:00 Одесса 11.0 15.0 765 99 Пн 0 09 ГОДИН
23.10.19 06:00 Одесса 11.0 15.0 765 100 Пн 0 06 ГОДИН
23.10.19 03:00 Одесса 11.0 0.0 765 100 Пн 0 03 ГОДИНИ
22.10.19 09:00 Одесса 12.0 15.0 765 95 Пн 1 21 ГОДИНУ
22.10.19 06:00 Одесса 13.0 15.0 765 93 Пн 1 18 ГОДИН
22.10.19 03:00 Одесса 12.0 15.0 766 95 Пн 1 15 ГОДИН
22.10.19 12:00 Одесса 10.0 15.0 766 96 Пн 1 12 ГОДИН
22.10.19 09:00 Одесса 9.0 15.0 766 100 Пн-З 2 09 ГОДИН
22.10.19 06:00 Одесса 11.0 15.0 765 100 Пн 0 06 ГОДИН
22.10.19 03:00 Одесса 13.0 15.0 765 91 Пн 0 03 ГОДИНИ
21.10.19 09:00 Одесса 13.0 15.0 765 90 С 2 21 ГОДИНУ
21.10.19 06:00 Одесса 13.0 15.0 765 85 Пд-С 1 18 ГОДИН
21.10.19 03:00 Одесса 15.0 15.0 766 85 С 3 15 ГОДИН
21.10.19 12:00 Одесса 15.0 15.0 766 91 С 4 12 ГОДИН
21.10.19 09:00 Одесса 13.0 15.0 766 96 Пн 0 09 ГОДИН
Количество строк
1 2 3 4 5 6 7 8 9 10
Page 1 of 543